EW8689 Weather Reports


time (UTC)temp
F
wind
direction
speed
knots
gust
knots
rain 1hr
in
rain 24hr
in
rain mn
in
humidity
%
barometer
mb
20260506163106 58 0.0 0.0 0.00 0.95 0.72 78 1008.0
20260506161605 58 0.0 0.0 0.00 0.95 0.72 78 1008.1
20260506160050 59 0.0 0.0 0.00 0.95 0.72 77 1008.0
20260506154606 59 0.0 0.0 0.00 0.95 0.72 78 1008.1
20260506153041 60 0.0 0.0 0.00 0.95 0.72 74 1008.0
20260506151538 61 0.0 0.0 0.00 0.95 0.72 71 1008.1
20260506150032 61 0.0 0.0 0.00 0.95 0.72 73 1008.0
20260506144527 61 0.0 0.0 0.00 0.95 0.72 75 1008.1
20260506143023 61 0.0 0.0 0.00 0.95 0.72 74 1008.3
20260506141519 60 0.0 0.0 0.00 0.95 0.72 77 1008.4
20260506140021 60 0.0 0.0 0.00 0.95 0.72 82 1008.5
20260506134510 60 0.0 0.0 0.00 0.95 0.72 84 1008.6
20260506133006 59 0.0 0.0 0.00 0.95 0.72 84 1008.7
20260506131502 58 0.0 0.0 0.00 0.95 0.72 84 1008.8
20260506130059 58 0.0 0.0 0.00 0.95 0.72 88 1008.8
20260506124555 57 0.0 0.0 0.00 0.96 0.72 91 1008.8
20260506123049 56 0.0 0.0 0.00 0.96 0.72 93 1008.9
20260506121544 55 0.0 0.0 0.00 0.96 0.72 95 1009.0
20260506120045 55 0.0 0.0 0.00 0.96 0.72 96 1009.0
20260506114536 54 0.0 0.0 0.00 1.18 0.72 96 1009.1
20260506113033 53 0.0 0.0 0.00 1.18 0.72 96 1009.2
20260506111527 53 0.0 0.0 0.00 1.18 0.72 96 1009.3
20260506110023 53 0.0 0.0 0.00 1.18 0.72 96 1009.3
20260506104518 53 0.0 0.0 0.01 1.18 0.72 96 1009.3
20260506103014 53 0.0 0.0 0.02 1.18 0.72 96 1009.4
20260506101509 54 0.0 0.0 0.02 1.18 0.72 96 1009.3
20260506100006 53 0.0 0.0 0.04 1.18 0.72 96 1009.3
20260506094503 52 0.0 0.0 0.05 1.17 0.71 96 1009.2
20260506093056 52 0.0 0.0 0.06 1.17 0.70 96 1009.0
20260506091557 52 0.0 0.0 0.08 1.15 0.69 96 1008.9
20260506090048 51 0.0 0.0 0.09 1.13 0.68 96 1008.7
20260506084545 52 0.0 0.0 0.09 1.12 0.66 96 1008.6
20260506083039 51 0.0 0.0 0.10 1.10 0.64 96 1008.4
20260506081535 51 0.0 0.0 0.13 1.08 0.61 96 1008.3
20260506073022 51 0.0 0.0 0.15 1.00 0.54 96 1007.8
20260506071518 51 0.0 0.0 0.13 0.95 0.49 96 1007.7
20260506061505 51 0.0 0.0 0.12 0.82 0.35 95 1006.9
20260506044543 51 0.0 0.0 0.09 0.66 0.17 95 1006.3
20260506043038 51 0.0 0.0 0.08 0.63 0.14 95 1006.2
20260506041535 51 0.0 0.0 0.08 0.61 0.12 95 1006.2
20260506040037 51 0.0 0.0 0.08 0.59 0.10 95 1006.2
20260506034528 51 0.0 0.0 0.07 0.60 0.08 95 1006.2
20260506033021 51 0.0 0.0 0.06 0.57 0.06 95 1006.3
20260506031517 51 0.0 0.0 0.03 0.56 0.04 95 1006.3
20260506030013 51 0.0 0.0 0.02 0.54 0.02 95 1006.4
20260506024510 51 0.0 0.0 0.01 0.61 0.01 95 1006.4
20260506023004 51 0.0 0.0 0.01 0.61 0.01 95 1006.5
20260506021613 51 0.0 0.0 0.01 0.61 0.01 95 1006.5
20260506020055 51 0.0 0.0 0.00 0.61 0.00 95 1006.4
20260506014551 51 0.0 0.0 0.00 0.65 0.00 95 1006.5
20260506013047 51 0.0 0.0 0.00 0.65 0.00 95 1006.5
20260506011542 51 0.0 0.0 0.00 0.65 0.00 95 1006.8
20260506010048 51 0.0 0.0 0.00 0.65 0.00 94 1007.0
20260506004533 51 0.0 0.0 0.00 0.67 0.00 94 1007.2
20260506003029 51 0.0 0.0 0.00 0.67 0.00 94 1007.4
20260506001525 51 0.0 0.0 0.00 0.67 0.00 94 1007.7
20260506000021 52 0.0 0.0 0.00 0.67 0.00 94 1007.9
20260505234531 52 0.0 0.0 0.00 0.77 0.00 94 1008.0
20260505233012 52 0.0 0.0 0.00 0.77 0.00 94 1008.1
20260505231508 52 0.0 0.0 0.00 0.77 0.00 94 1008.2
20260505230007 52 0.0 0.0 0.00 0.77 0.00 94 1008.3
20260505224559 52 0.0 0.0 0.01 0.85 0.00 93 1008.3
20260505223055 52 0.0 0.0 0.04 0.85 0.00 93 1008.2
20260505221551 52 0.0 0.0 0.09 0.85 0.00 93 1008.4
20260505220049 52 0.0 0.0 0.14 0.85 0.00 92 1008.4
20260505214601 53 0.0 0.0 0.17 0.87 0.84 92 1008.5
20260505213042 53 0.0 0.0 0.15 0.83 0.80 92 1008.6
20260505211533 54 0.0 0.0 0.13 0.78 0.76 91 1008.7
20260505210028 54 0.0 0.0 0.08 0.73 0.71 90 1008.8
20260505204523 56 0.0 0.0 0.05 0.70 0.68 92 1008.8
20260505203121 56 0.0 0.0 0.02 0.68 0.65 92 1008.8
20260505201523 56 0.0 0.0 0.00 0.65 0.63 92 1008.5
20260505200011 55 0.0 0.0 0.00 0.65 0.63 92 1008.3
20260505194507 55 0.0 0.0 0.00 0.65 0.63 91 1008.0
20260505193002 55 0.0 0.0 0.00 0.65 0.63 91 1007.9
20260505191558 55 0.0 0.0 0.00 0.65 0.63 90 1007.5
20260505190056 56 0.0 0.0 0.00 0.65 0.63 89 1007.3
20260505184550 56 0.0 0.0 0.00 0.65 0.63 89 1007.0
20260505183044 56 0.0 0.0 0.00 0.65 0.63 89 1006.8
20260505181542 56 0.0 0.0 0.00 0.65 0.63 89 1006.8
20260505180057 57 0.0 0.0 0.00 0.65 0.63 89 1006.8
20260505174549 57 0.0 0.0 0.00 0.65 0.63 88 1006.9
20260505173033 58 0.0 0.0 0.00 0.65 0.63 86 1006.8
20260505171525 59 0.0 0.0 0.00 0.65 0.63 86 1006.7
20260505170022 60 0.0 0.0 0.02 0.65 0.63 87 1006.7
20260505164515 60 0.0 0.0 0.02 0.65 0.63 89 1007.0